Location: Stavanger
(58.9670°N, 5.7500°E)
Time: 08:08:02
(UTC+02:00)

ISS - Pass Details

Date: 25 March 2019
Orbit: 408 x 410 km, 51.6° (Epoch: 26 April)

Event Time Altitude Azimuth Distance (km) Brightness Sun altitude
Rises 21:47:49 0° 246° (WSW) 2,336 0.3 -20.0°
Reaches altitude 10° 21:50:10 10° 231° (SW) 1,475 -0.9 -20.3°
Enters shadow 21:50:44 13° 225° (SW) 1,293 -1.3 -20.3°
